This demonstration page uses our WeatherBlox Daily Observations layout. Learn more.

Left ArrowRight Arrow

31.84235, -102.49876

Hourly Observations for March 24, 2017

Temp ( °F °C ) Dew Point ( °F °C ) Humidity (%) Winds ( mph kmh ) Pressure ( in mb ) Visibility ( mi km ) Precip ( " mm )
12:53 am 00:53 Clear 63 17.2 18 -7.8 17 17 WNW 23 37 29.80 1009 10 16 0.00 0.00
1:53 am 01:53 Clear 60 15.6 18 -7.8 19 19 WNW 21 33 29.81 1009 10 16 0.00 0.00
2:53 am 02:53 Clear 58 14.4 19 -7.2 22 22 WNW 17 28 29.82 1010 10 16 0.00 0.00
3:53 am 03:53 undefined 56 13.3 19 -7.2 24 24 undefined N/A 29.81 1009 N/A 0.00 0.00
4:53 am 04:53 Clear 55 12.8 20 -6.7 25 25 WSW 15 24 29.80 1009 10 16 0.00 0.00
5:53 am 05:53 undefined N/A N/A N/A undefined N/A N/A N/A 0.00 0.00
6:53 am 06:53 Clear 51 10.6 22 -5.6 32 32 WSW 15 24 29.81 1010 10 16 0.00 0.00
7:53 am 07:53 Sunny 51 10.6 23 -5 33 33 SW 15 24 29.82 1010 10 16 0.00 0.00
8:53 am 08:53 Sunny 55 12.8 24 -4.4 30 30 WSW 22 35 29.83 1010 10 16 0.00 0.00
9:53 am 09:53 undefined N/A N/A N/A undefined N/A N/A N/A 0.00 0.00
10:53 am 10:53 Sunny 63 17.2 25 -3.9 24 24 W 29 46 29.82 1010 10 16 0.00 0.00
11:53 am 11:53 Sunny 66 18.9 25 -3.9 21 21 W 30 48 29.83 1010 10 16 0.00 0.00
12:53 pm 12:53 Sunny 69 20.6 26 -3.3 20 20 W 26 43 29.83 1010 10 16 0.00 0.00
1:53 pm 13:53 Sunny 70 21.1 26 -3.3 19 19 W 22 35 29.83 1010 10 16 0.00 0.00
2:53 pm 14:53 Sunny 75 23.9 27 -2.8 17 17 NW 25 41 29.74 1007 10 16 0.00 0.00
3:53 pm 15:53 Partly Cloudy 76 24.4 27 -2.8 16 16 W 28 44 29.81 1009 10 16 0.00 0.00
4:53 pm 16:53 Mostly Cloudy 77 25 28 -2.2 16 16 WNW 20 31 29.80 1009 10 16 0.00 0.00
5:53 pm 17:53 Mostly Cloudy 77 25 27 -2.8 16 16 NW 20 31 29.74 1007 10 16 0.00 0.00
6:53 pm 18:53 Cloudy 74 23.3 28 -2.2 18 18 NNW 17 28 29.84 1011 10 16 0.00 0.00
7:53 pm 19:53 undefined 71 21.7 29 -1.7 21 21 undefined N/A 29.88 1012 N/A 0.00 0.00
8:53 pm 20:53 Clear 65 18.3 28 -2.2 25 25 NNE 14 22 29.93 1014 10 16 0.00 0.00
9:53 pm 21:53 Clear 62 16.7 28 -2.2 28 28 NNE 16 26 29.97 1015 10 16 0.00 0.00
10:53 pm 22:53 undefined 59 15 29 -1.7 32 32 undefined N/A 30.01 1016 N/A 0.00 0.00
11:53 pm 23:53 Clear 56 13.3 30 -1.1 37 37 N 12 19 30.04 1017 10 16 0.00 0.00

Powered by AerisWeather